Wind_Speed
7 8 8 9 10 16 8 15 15 14 12 13 19 23 28 32 30 27 26 24 20 21 20 18 18 16 14 15 17 15 17 25 24 26 25 24 21 17 16 15 15 17 19
11 11 12 11 11 15 14 15 13 13 10 9 16 20 22 28 33 31 25 25 24 24 22 16 15 15 15 18 23 26 26 23 21 19 20 17 14 13 15 16 18 19 21
10 11 14 15 15 16 17 16 14 12 12 13 13 13 16 19 23 24 25 24 21 19 19 17 16 16 19 22 22 18 16 15 12 11 11 11 12 13 15 17 20 21 20
14 16 17 18 16 17 17 16 15 13 12 13 12 12 14 14 13 12 12 12 12 12 13 15 17 16 14 13 13 11 9 8 9 10 10 11 12 14 17 17 17 16 14
17 18 18 16 15 15 15 15 16 16 14 13 12 13 13 13 11 11 10 9 9 9 9 10 11 11 10 9 8 7 9 9 10 10 11 12 12 13 15 15 16 13 4
14 15 16 17 18 17 15 14 15 15 14 13 13 11 11 11 10 10 8 8 8 7 7 8 8 7 7 7 8 10 9 10 11 11 10 11 9 11 16 16 16 7 6
18 18 17 16 16 15 15 16 15 15 13 14 13 12 12 12 11 10 9 7 6 6 5 5 5 6 6 7 8 8 10 12 12 10 10 11 12 15 19 19 13 9 11
17 18 17 16 16 16 16 15 15 14 13 12 13 12 11 11 10 9 7 6 6 5 4 6 6 7 8 8 8 7 8 11 9 9 12 14 16 17 20 14 9 6 3
19 18 17 16 16 16 16 15 13 13 12 10 10 9 8 8 7 6 5 5 5 6 7 8 8 9 10 10 11 9 7 11 12 12 11 13 14 11 11 11 7 6 5
20 18 16 15 15 16 16 15 14 12 10 8 7 8 8 7 7 6 4 3 3 3 4 6 9 11 11 9 9 8 8 9 10 11 8 10 6 3 4 3 6 6 7
20 18 17 16 15 15 15 13 12 10 10 9 6 7 7 7 7 6 4 3 2 1 3 4 5 8 9 7 7 8 8 10 10 11 12 6 2 3 3 3 4 5 5
21 19 18 16 15 14 13 13 11 11 11 9 8 6 6 6 6 5 4 2 3 3 6 7 8 8 7 5 6 7 8 9 10 9 6 5 4 5 6 7 7 8 8
23 22 20 18 16 15 15 15 13 12 11 10 8 7 4 5 5 5 4 4 6 7 7 7 7 8 5 6 7 7 8 9 9 8 8 7 8 8 9 9 9 9 10
24 22 21 19 17 15 15 14 13 13 12 11 9 8 6 5 4 3 3 3 3 5 5 6 8 5 5 4 3 5 8 8 8 7 7 8 8 9 9 9 9 10 11
25 24 22 20 19 18 16 15 14 12 11 11 10 9 8 7 6 4 4 4 3 3 7 9 10 4 4 3 3 5 8 8 7 8 8 9 10 11 8 11 12 12 11
28 27 25 23 22 20 19 18 16 14 13 11 11 11 10 9 7 6 7 6 7 8 10 9 7 5 6 6 5 8 7 7 7 9 10 9 8 9 11 12 12 12 14
29 28 26 25 24 24 23 21 20 19 16 14 13 13 11 9 9 9 8 8 9 10 9 9 8 6 8 7 7 8 8 8 8 7 7 7 8 9 10 10 11 12 15
29 27 27 26 25 25 25 23 21 20 18 17 17 16 14 12 11 10 9 8 9 8 9 9 9 11 10 9 9 9 10 9 9 8 8 9 10 12 13 11 11 15 14
31 31 29 27 26 25 24 24 22 20 19 19 18 18 17 15 13 12 10 8 9 11 10 8 9 11 11 9 9 11 12 13 12 13 12 10 12 11 12 13 14 11 11
31 31 30 28 28 27 26 25 24 22 20 20 20 18 16 17 15 14 10 7 12 14 11 12 13 12 11 10 10 10 9 9 9 10 11 12 12 11 9 9 10 12 15
30 32 32 31 30 29 28 27 26 24 22 21 18 15 14 14 16 14 11 19 15 13 12 13 12 11 10 9 10 10 10 10 9 9 9 8 7 8 9 10 12 12 11
28 31 33 32 30 30 28 27 26 25 23 22 20 17 17 16 19 14 17 18 11 11 13 12 12 11 11 11 11 11 11 12 12 9 8 7 8 10 10 9 10 12 13
26 28 31 32 31 29 27 26 26 26 26 25 23 21 19 18 15 15 18 13 11 12 12 11 11 11 10 10 10 10 10 9 6 8 10 11 12 11 9 10 12 14 15
24 26 27 28 30 29 28 26 26 25 26 28 25 23 19 16 16 17 16 12 12 11 12 11 11 11 9 7 6 5 4 5 7 10 11 10 8 7 7 11 13 15 16
22 24 24 24 25 25 24 25 25 25 27 27 26 24 19 14 14 16 13 12 11 11 10 10 10 9 7 6 6 7 7 8 9 9 9 9 8 10 12 14 16 18 17
20 21 20 19 19 20 20 21 22 23 25 25 24 20 18 12 13 13 11 10 10 10 9 9 9 8 7 7 7 8 7 8 9 10 10 11 11 12 14 16 18 18 18
Wind_Direction
119 134 134 141 167 181 163 166 175 161 174 185 196 200 192 197 202 202 198 192 195 197 206 223 228 223 222 230 216 226 265 286 282 281 276 274 273 265 262 264 268 276 285
112 120 125 128 139 150 147 148 153 151 159 177 194 198 198 206 207 210 213 210 207 209 211 221 227 238 238 243 260 270 276 281 275 271 271 264 254 252 259 266 277 284 288
126 126 126 123 122 123 121 121 125 133 137 137 152 173 188 196 200 204 203 203 206 212 223 234 241 248 257 263 267 269 268 268 260 254 258 256 256 258 266 275 281 286 292
138 131 124 124 128 127 120 120 122 127 130 130 129 139 146 150 156 163 170 182 194 209 224 236 243 249 251 252 258 257 244 236 244 254 258 262 265 271 277 282 283 292 297
143 142 140 140 141 139 139 138 131 128 128 127 131 134 132 133 140 151 161 168 186 200 211 223 229 237 237 234 229 224 230 239 247 254 263 270 277 281 285 284 287 294 301
153 147 141 131 128 128 126 125 129 130 129 129 133 138 143 146 157 165 172 180 191 200 213 213 208 211 209 219 227 231 245 260 268 274 274 277 287 262 269 278 284 268 293
147 145 142 138 131 130 130 129 133 135 139 138 140 143 144 142 141 142 142 151 154 165 181 202 217 223 224 227 242 258 265 267 268 266 252 246 245 248 262 277 275 254 267
151 145 144 151 149 142 142 142 141 138 140 144 143 148 148 143 142 141 144 163 170 178 199 220 228 230 243 253 258 280 285 281 276 256 259 265 268 270 275 273 287 283 268
157 156 158 155 151 150 148 146 144 146 151 149 143 145 157 163 159 161 177 196 207 211 219 232 232 238 242 238 246 241 247 274 287 284 285 286 287 285 272 267 247 278 262
167 169 166 164 160 155 155 156 156 158 149 141 146 142 150 162 162 172 173 168 185 215 244 246 248 255 266 264 238 223 232 261 282 291 317 321 321 317 338 253 254 264 294
174 174 171 168 166 167 166 164 163 159 158 163 162 159 152 155 158 164 177 167 163 194 295 283 261 260 261 255 217 219 243 253 260 274 293 300 327 306 314 329 328 317 316
181 178 178 177 179 176 176 174 175 174 172 172 169 172 147 151 159 170 186 203 219 218 237 262 277 298 253 219 213 232 240 250 256 271 281 264 263 243 255 272 291 295 289
183 182 182 184 184 183 181 184 180 182 186 189 189 194 203 170 178 183 194 213 221 229 249 267 277 291 267 242 252 233 240 237 260 275 254 256 262 281 289 292 298 309 308
189 189 190 193 192 190 189 196 198 198 198 200 204 206 212 234 221 238 225 246 258 259 269 285 301 291 301 289 275 233 241 249 268 273 254 263 273 291 296 296 300 307 310
196 195 198 200 200 197 199 204 205 208 215 215 212 219 224 227 253 261 268 275 281 287 293 309 312 329 317 312 264 245 251 268 265 255 266 274 282 284 290 289 302 310 312
198 198 202 205 204 203 203 200 204 214 221 222 223 230 231 227 232 239 252 260 260 257 269 282 302 265 264 271 270 273 276 278 278 273 273 274 277 287 293 295 300 306 315
204 205 206 211 209 210 213 217 216 215 220 220 224 230 232 237 232 234 241 248 257 265 261 255 276 248 260 267 284 278 280 280 277 275 277 286 288 294 293 298 309 300 307
208 215 217 218 219 220 223 228 226 226 226 222 221 225 235 231 237 241 246 259 268 282 287 275 265 270 273 273 272 269 271 270 272 275 279 282 286 294 299 297 297 306 307
209 215 221 222 226 227 227 231 231 228 226 225 224 227 229 230 233 236 242 250 283 288 285 277 279 288 291 280 276 278 275 272 270 271 273 279 287 290 290 295 300 300 304
212 219 225 224 224 226 227 229 231 232 228 229 229 232 230 230 233 233 230 262 274 275 278 279 282 286 282 275 278 280 285 286 280 278 277 279 284 287 290 291 298 304 305
215 218 226 227 227 229 231 231 231 233 233 234 233 230 233 233 242 230 233 278 272 263 273 277 282 284 282 276 276 278 281 283 285 285 287 286 284 286 287 293 299 306 315
219 221 227 232 231 231 233 233 232 232 232 234 232 224 218 238 229 224 263 288 265 270 274 279 284 283 276 277 277 268 274 278 280 278 280 283 280 285 293 300 307 310 311
220 224 227 232 236 236 235 234 233 232 231 231 229 225 227 230 222 252 275 278 263 273 277 281 285 284 274 269 273 276 272 278 262 263 271 273 275 278 280 292 297 303 309
221 227 230 230 235 238 239 238 237 233 231 228 225 224 229 222 253 252 279 258 262 270 275 283 292 289 287 284 289 292 277 256 263 268 278 288 296 310 307 307 313 314 310
221 228 231 231 233 237 240 239 236 232 228 227 225 225 222 230 258 268 264 247 261 267 275 282 291 292 293 287 287 283 276 270 276 291 294 298 303 302 305 305 304 308 310
221 226 228 229 230 235 235 233 230 227 227 226 223 221 216 239 273 264 238 252 264 270 273 282 287 287 291 283 285 290 297 292 294 298 298 296 297 299 299 302 306 307 308
Height
1477 1478 1478 1480 1481 1483 1486 1487 1490 1494 1496 1501 1506 1511 1515 1522 1527 1532 1535 1538 1542 1545 1548 1551 1555 1557 1559 1561 1562 1564 1566 1567 1566 1566 1567 1567 1566 1566 1566 1566 1566 1565 1563
1479 1481 1482 1482 1484 1485 1488 1491 1493 1495 1499 1502 1505 1509 1513 1517 1522 1527 1532 1535 1539 1542 1545 1548 1551 1553 1555 1557 1558 1560 1561 1561 1562 1561 1561 1562 1561 1562 1563 1563 1564 1562 1560
1482 1483 1483 1485 1487 1487 1489 1492 1496 1499 1501 1503 1507 1510 1513 1517 1520 1524 1528 1532 1537 1540 1542 1545 1548 1550 1551 1552 1553 1553 1556 1556 1557 1558 1559 1559 1560 1560 1560 1560 1559 1558 1555
1485 1487 1488 1489 1491 1492 1494 1496 1499 1501 1503 1506 1509 1512 1514 1517 1520 1524 1527 1530 1533 1536 1539 1542 1544 1546 1547 1548 1549 1550 1552 1553 1554 1556 1557 1557 1557 1557 1556 1554 1554 1553 1552
1486 1488 1490 1492 1494 1496 1497 1499 1501 1505 1508 1510 1513 1515 1517 1519 1523 1526 1529 1531 1535 1536 1538 1541 1543 1543 1544 1546 1547 1548 1549 1551 1552 1552 1552 1553 1553 1553 1553 1551 1551 1549 1550
1487 1490 1492 1494 1497 1499 1501 1503 1505 1508 1510 1512 1514 1518 1519 1521 1524 1526 1529 1531 1533 1535 1537 1540 1541 1542 1542 1544 1546 1547 1547 1549 1549 1549 1548 1549 1550 1549 1548 1549 1549 1546 1545
1489 1491 1494 1496 1498 1501 1503 1505 1508 1510 1512 1513 1515 1520 1522 1524 1526 1527 1528 1531 1532 1535 1538 1540 1542 1543 1543 1543 1544 1544 1546 1546 1546 1546 1547 1547 1546 1545 1546 1546 1546 1543 1542
1489 1491 1494 1496 1499 1501 1504 1507 1509 1511 1513 1516 1517 1521 1523 1526 1527 1527 1528 1532 1532 1533 1537 1540 1541 1542 1543 1542 1542 1542 1543 1543 1544 1543 1545 1545 1543 1543 1542 1543 1542 1540 1540
1488 1491 1493 1496 1498 1501 1504 1506 1509 1511 1515 1516 1518 1520 1523 1526 1526 1526 1528 1531 1532 1533 1534 1539 1539 1539 1540 1541 1542 1542 1542 1541 1542 1541 1541 1540 1538 1538 1540 1540 1540 1538 1537
1486 1490 1493 1495 1498 1501 1505 1508 1510 1513 1514 1516 1517 1521 1524 1526 1527 1527 1528 1529 1531 1532 1533 1536 1537 1538 1538 1539 1539 1538 1540 1540 1540 1540 1538 1536 1537 1538 1538 1538 1537 1537 1535
1484 1489 1493 1496 1499 1502 1505 1508 1510 1513 1516 1518 1520 1522 1525 1526 1527 1527 1528 1529 1530 1531 1532 1533 1535 1536 1536 1535 1536 1537 1538 1538 1538 1538 1536 1536 1537 1538 1539 1538 1536 1534 1533
1484 1488 1492 1495 1498 1501 1504 1507 1510 1513 1516 1518 1521 1522 1524 1526 1527 1527 1528 1529 1529 1530 1531 1532 1533 1533 1532 1533 1533 1534 1534 1535 1535 1535 1535 1535 1536 1537 1537 1536 1534 1533 1532
1483 1487 1491 1494 1497 1501 1504 1507 1510 1514 1516 1518 1520 1522 1523 1525 1526 1527 1528 1529 1530 1530 1531 1531 1530 1529 1529 1529 1529 1530 1531 1531 1532 1532 1533 1533 1534 1534 1533 1533 1532 1531 1529
1481 1485 1488 1492 1495 1499 1503 1506 1509 1511 1514 1516 1518 1520 1522 1523 1525 1527 1529 1529 1530 1529 1529 1530 1528 1527 1525 1525 1527 1527 1528 1529 1530 1531 1531 1531 1532 1531 1530 1530 1529 1528 1526
1479 1483 1487 1491 1495 1499 1502 1504 1507 1510 1512 1514 1515 1517 1520 1522 1524 1526 1527 1528 1529 1529 1528 1528 1527 1526 1526 1525 1525 1526 1526 1526 1527 1528 1528 1528 1529 1528 1528 1527 1526 1524 1523
1475 1481 1485 1489 1493 1496 1499 1502 1505 1508 1510 1512 1514 1516 1517 1519 1521 1523 1524 1526 1527 1528 1528 1527 1526 1526 1526 1525 1524 1525 1525 1524 1525 1525 1525 1525 1525 1525 1525 1524 1522 1521 1520
1472 1477 1482 1486 1490 1493 1494 1497 1501 1504 1507 1509 1512 1514 1516 1519 1520 1521 1522 1523 1524 1526 1525 1524 1524 1525 1524 1523 1523 1523 1523 1523 1523 1523 1522 1522 1522 1521 1521 1520 1519 1518 1517
1469 1474 1478 1482 1486 1489 1492 1495 1499 1501 1504 1508 1511 1513 1515 1518 1519 1520 1521 1521 1521 1522 1522 1522 1521 1521 1521 1521 1521 1520 1520 1520 1520 1520 1519 1519 1518 1518 1518 1517 1516 1516 1514
1465 1469 1474 1479 1482 1486 1489 1492 1495 1499 1502 1504 1506 1508 1510 1512 1514 1517 1518 1519 1520 1520 1519 1519 1518 1518 1518 1518 1518 1518 1518 1518 1518 1517 1517 1516 1516 1515 1515 1515 1514 1513 1511
1462 1465 1468 1473 1477 1480 1484 1487 1490 1494 1497 1500 1503 1505 1508 1510 1512 1513 1514 1517 1518 1517 1517 1516 1516 1516 1516 1515 1515 1515 1515 1515 1515 1514 1514 1513 1513 1513 1512 1512 1511 1510 1508
1459 1462 1464 1468 1471 1474 1477 1481 1486 1489 1493 1496 1500 1503 1505 1506 1508 1510 1512 1513 1514 1515 1515 1514 1514 1513 1513 1513 1513 1513 1512 1512 1512 1512 1511 1511 1510 1510 1510 1509 1509 1507 1505
1454 1458 1461 1463 1467 1470 1473 1477 1481 1486 1490 1493 1496 1499 1501 1502 1505 1508 1510 1510 1510 1512 1511 1511 1511 1511 1510 1510 1510 1510 1509 1509 1509 1509 1509 1509 1509 1508 1508 1507 1506 1505 1503
1449 1452 1456 1460 1463 1466 1470 1473 1477 1480 1483 1487 1490 1493 1496 1499 1503 1505 1506 1506 1507 1508 1508 1508 1508 1508 1508 1507 1507 1506 1506 1507 1507 1507 1507 1506 1505 1505 1505 1504 1503 1501 1499
1446 1448 1451 1455 1458 1462 1465 1468 1471 1475 1479 1482 1486 1490 1492 1496 1499 1501 1502 1502 1504 1505 1505 1506 1506 1505 1505 1504 1504 1504 1504 1505 1505 1504 1503 1502 1502 1501 1501 1500 1499 1497 1496
1441 1444 1446 1450 1454 1458 1461 1464 1467 1470 1473 1478 1483 1487 1491 1495 1496 1497 1498 1499 1501 1502 1503 1503 1503 1503 1502 1502 1502 1502 1502 1502 1502 1502 1501 1500 1500 1500 1499 1498 1496 1494 1492
1438 1440 1443 1447 1450 1454 1456 1459 1463 1466 1469 1474 1479 1484 1488 1491 1493 1494 1495 1497 1498 1499 1500 1500 1500 1500 1500 1500 1501 1501 1500 1500 1500 1499 1498 1498 1497 1497 1496 1494 1492 1490 1488